When you browse on this site, cookies collect data to enhance your experience and personalize the content and advertising you see.
Visit our Privacy Policy to learn more. By continuing to use the site, you agree to this use of cookies and data.
  • In Hungary
  • List of Countries
  • For 7 days
  • Water Temperature
  • Satellite Maps
  • Weather Map
  • News
  • Weather Widgets
  • user-avatar
    Login

    Hourly Weather Haren

    Today, 15 February, Friday

    Time Temperature Precipitation Wind Pressure Humidity
    00:00 +5°C° 0 mm 2 mps 774 mmHg 59%
    01:00 +5°C° 0 mm 2 mps 774 mmHg 58%
    02:00 +5°C° 0 mm 2 mps 774 mmHg 57%
    03:00 +5°C° 0 mm 2 mps 773 mmHg 57%
    04:00 +4°C° 0 mm 2 mps 773 mmHg 56%
    05:00 +4°C° 0 mm 2 mps 773 mmHg 55%
    06:00 +3°C° 0 mm 3 mps 773 mmHg 55%
    07:00 +4°C° 0 mm 3 mps 773 mmHg 54%
    08:00 +5°C° 0 mm 3 mps 773 mmHg 52%
    09:00 +7°C° 0 mm 3 mps 773 mmHg 51%
    10:00 +8°C° 0 mm 3 mps 772 mmHg 49%
    11:00 +10°C° 0 mm 3 mps 772 mmHg 47%
    12:00 +13°C° 0 mm 3 mps 772 mmHg 47%
    13:00 +12°C° 0 mm 3 mps 772 mmHg 49%
    14:00 +12°C° 0 mm 3 mps 771 mmHg 52%
    15:00 +12°C° 0 mm 3 mps 770 mmHg 55%
    16:00 +11°C° 0 mm 3 mps 770 mmHg 58%
    17:00 +10°C° 0 mm 3 mps 770 mmHg 62%
    18:00 +8°C° 0 mm 3 mps 770 mmHg 66%
    19:00 +8°C° 0 mm 3 mps 769 mmHg 67%
    20:00 +7°C° 0 mm 3 mps 769 mmHg 69%
    21:00 +7°C° 0 mm 3 mps 769 mmHg 70%
    22:00 +5°C° 0 mm 3 mps 769 mmHg 70%
    23:00 +5°C° 0 mm 3 mps 769 mmHg 70%

    Tomorrow, 16 February, Saturday

    Time Temperature Precipitation Wind Pressure Humidity
    00:00 +5°C° 0 mm 4 mps 769 mmHg 70%
    01:00 +4°C° 0 mm 4 mps 768 mmHg 71%
    02:00 +4°C° 0 mm 4 mps 768 mmHg 72%
    03:00 +4°C° 0 mm 4 mps 768 mmHg 74%
    04:00 +3°C° 0 mm 4 mps 768 mmHg 74%
    05:00 +3°C° 0 mm 4 mps 767 mmHg 74%
    06:00 +3°C° 0 mm 4 mps 767 mmHg 74%
    07:00 +3°C° 0 mm 5 mps 767 mmHg 73%
    08:00 +5°C° 0 mm 5 mps 767 mmHg 72%
    09:00 +5°C° 0 mm 5 mps 767 mmHg 71%
    10:00 +7°C° 0 mm 5 mps 767 mmHg 69%
    11:00 +8°C° 0 mm 5 mps 767 mmHg 66%
    12:00 +9°C° 0 mm 5 mps 767 mmHg 64%
    13:00 +10°C° 0 mm 5 mps 767 mmHg 65%
    14:00 +11°C° 0 mm 4 mps 767 mmHg 66%
    15:00 +11°C° 0 mm 4 mps 767 mmHg 67%
    16:00 +10°C° 0 mm 4 mps 767 mmHg 73%
    17:00 +8°C° 0 mm 3 mps 767 mmHg 79%
    18:00 +7°C° 0 mm 3 mps 767 mmHg 85%
    19:00 +7°C° 0 mm 3 mps 767 mmHg 86%
    20:00 +5°C° 0 mm 3 mps 767 mmHg 87%
    21:00 +5°C° 0 mm 3 mps 767 mmHg 88%
    22:00 +5°C° 0 mm 3 mps 767 mmHg 88%
    23:00 +4°C° 0 mm 3 mps 767 mmHg 88%

    Day after tomorrow, 17 February, Sunday

    Time Temperature Precipitation Wind Pressure Humidity
    00:00 +4°C° 0 mm 3 mps 767 mmHg 89%
    01:00 +5°C° 0 mm 2 mps 767 mmHg 89%
    02:00 +5°C° 0 mm 2 mps 766 mmHg 90%
    03:00 +5°C° 0 mm 2 mps 766 mmHg 90%
    04:00 +3°C° 0 mm 3 mps 766 mmHg 90%
    05:00 +3°C° 0 mm 3 mps 766 mmHg 90%
    06:00 +3°C° 0 mm 3 mps 766 mmHg 90%
    07:00 +4°C° 0 mm 3 mps 765 mmHg 84%
    08:00 +5°C° 0 mm 4 mps 765 mmHg 78%
    09:00 +6°C° 0 mm 4 mps 765 mmHg 72%
    10:00 +7°C° 0 mm 4 mps 765 mmHg 68%
    11:00 +10°C° 0 mm 4 mps 765 mmHg 63%
    12:00 +11°C° 0 mm 4 mps 764 mmHg 59%
    13:00 +11°C° 0 mm 4 mps 764 mmHg 59%
    14:00 +12°C° 0 mm 4 mps 764 mmHg 59%
    15:00 +12°C° 0 mm 4 mps 763 mmHg 59%
    16:00 +10°C° 0 mm 4 mps 763 mmHg 62%
    17:00 +9°C° 0 mm 3 mps 763 mmHg 66%
    18:00 +8°C° 0 mm 3 mps 763 mmHg 70%
    19:00 +8°C° 0 mm 3 mps 763 mmHg 71%
    20:00 +6°C° 0 mm 4 mps 764 mmHg 73%
    21:00 +6°C° 0 mm 4 mps 764 mmHg 75%
    22:00 +6°C° 0 mm 4 mps 764 mmHg 77%
    23:00 +5°C° 0 mm 3 mps 764 mmHg 79%

    18 February, Monday

    Time Temperature Precipitation Wind Pressure Humidity
    00:00 +5°C° 0 mm 3 mps 764 mmHg 82%
    01:00 +4°C° 0 mm 3 mps 763 mmHg 83%
    02:00 +4°C° 0 mm 3 mps 763 mmHg 84%
    03:00 +4°C° 0 mm 3 mps 763 mmHg 85%
    04:00 +3°C° 0 mm 3 mps 763 mmHg 86%
    05:00 +3°C° 0 mm 3 mps 763 mmHg 86%
    06:00 +3°C° 0 mm 3 mps 763 mmHg 86%
    07:00 +4°C° 0 mm 4 mps 763 mmHg 82%
    08:00 +5°C° 0 mm 4 mps 763 mmHg 78%
    09:00 +6°C° 0 mm 4 mps 763 mmHg 74%
    10:00 +8°C° 0 mm 4 mps 763 mmHg 70%
    11:00 +10°C° 0 mm 4 mps 762 mmHg 66%
    12:00 +10°C° 0 mm 5 mps 762 mmHg 62%
    13:00 +11°C° 0 mm 4 mps 762 mmHg 62%
    14:00 +12°C° 0 mm 4 mps 762 mmHg 63%
    15:00 +12°C° 0 mm 4 mps 761 mmHg 63%
    16:00 +10°C° 0 mm 3 mps 761 mmHg 68%
    17:00 +9°C° 0 mm 3 mps 762 mmHg 73%
    18:00 +8°C° 0 mm 3 mps 762 mmHg 78%
    19:00 +7°C° 0 mm 3 mps 762 mmHg 79%
    20:00 +7°C° 0 mm 3 mps 762 mmHg 80%
    21:00 +7°C° 0 mm 3 mps 762 mmHg 81%
    22:00 +7°C° 0 mm 3 mps 762 mmHg 84%
    23:00 +5°C° 0 mm 3 mps 761 mmHg 87%

    19 February, Tuesday

    Time Temperature Precipitation Wind Pressure Humidity
    00:00 +5°C° 0 mm 3 mps 761 mmHg 90%
    01:00 +5°C° 0.2 mm 3 mps 761 mmHg 91%
    02:00 +5°C° 0.2 mm 4 mps 761 mmHg 93%
    03:00 +6°C° 0.2 mm 4 mps 761 mmHg 94%
    04:00 +6°C° 0.4 mm 4 mps 761 mmHg 94%
    05:00 +6°C° 0.4 mm 4 mps 761 mmHg 94%
    06:00 +6°C° 0.4 mm 4 mps 761 mmHg 95%
    07:00 +6°C° 0 mm 5 mps 761 mmHg 92%
    08:00 +6°C° 0 mm 5 mps 761 mmHg 88%
    09:00 +7°C° 0 mm 6 mps 762 mmHg 85%
    10:00 +8°C° 0 mm 6 mps 762 mmHg 78%
    11:00 +8°C° 0 mm 7 mps 762 mmHg 71%
    12:00 +9°C° 0 mm 7 mps 762 mmHg 64%
    13:00 +9°C° 0 mm 7 mps 762 mmHg 64%
    14:00 +9°C° 0 mm 7 mps 762 mmHg 64%
    15:00 +9°C° 0 mm 7 mps 762 mmHg 64%
    16:00 +7°C° 0 mm 6 mps 763 mmHg 71%
    17:00 +6°C° 0 mm 4 mps 763 mmHg 77%
    18:00 +5°C° 0 mm 3 mps 763 mmHg 83%
    19:00 +4°C° 0 mm 3 mps 764 mmHg 86%
    20:00 +4°C° 0 mm 3 mps 764 mmHg 88%
    21:00 +4°C° 0 mm 3 mps 764 mmHg 90%
    22:00 +4°C° 0 mm 4 mps 764 mmHg 89%
    23:00 +4°C° 0 mm 4 mps 764 mmHg 88%

    20 February, Wednesday

    Time Temperature Precipitation Wind Pressure Humidity
    00:00 +4°C° 0 mm 4 mps 764 mmHg 87%
    01:00 +4°C° 0 mm 4 mps 764 mmHg 88%
    02:00 +3°C° 0 mm 4 mps 764 mmHg 88%
    03:00 +3°C° 0 mm 4 mps 764 mmHg 89%
    04:00 +3°C° 0 mm 4 mps 764 mmHg 90%
    05:00 +3°C° 0 mm 4 mps 764 mmHg 91%
    06:00 +2°C° 0 mm 5 mps 764 mmHg 92%
    07:00 +3°C° 0 mm 5 mps 764 mmHg 88%
    08:00 +4°C° 0 mm 6 mps 765 mmHg 85%
    09:00 +5°C° 0 mm 6 mps 765 mmHg 82%
    10:00 +7°C° 0 mm 6 mps 765 mmHg 78%
    11:00 +8°C° 0 mm 7 mps 765 mmHg 74%
    12:00 +9°C° 0 mm 7 mps 765 mmHg 70%
    13:00 +9°C° 0.1 mm 7 mps 765 mmHg 72%
    14:00 +9°C° 0.1 mm 6 mps 765 mmHg 74%
    15:00 +8°C° 0.1 mm 6 mps 765 mmHg 77%
    16:00 +8°C° 0.1 mm 6 mps 765 mmHg 79%
    17:00 +7°C° 0.1 mm 5 mps 765 mmHg 81%
    18:00 +7°C° 0.1 mm 5 mps 765 mmHg 83%
    19:00 +7°C° 0 mm 5 mps 765 mmHg 84%
    20:00 +6°C° 0 mm 5 mps 766 mmHg 84%
    21:00 +6°C° 0 mm 5 mps 766 mmHg 84%
    22:00 +6°C° 0 mm 5 mps 766 mmHg 85%
    23:00 +6°C° 0 mm 5 mps 766 mmHg 86%
    Show more